Location: Friedrichshafen
(47.6598°N, 9.4819°E)
Time: 10:41:54
(UTC+01:00)

ISS - Pass Details

Date: 08 January 2018
Orbit: 402 x 406 km, 51.6° (Epoch: 16 January)

Event Time Altitude Azimuth Distance (km) Brightness Sun altitude
Exits shadow 05:07:49 12° 64° (ENE) 1,334 -0.5 -29.7°
Drops below altitude 10° 05:08:04 11° 66° (ENE) 1,431 -0.3 -29.6°
Sets 05:10:19 0° 74° (ENE) 2,329 1.1 -29.3°
